[[{"header":{"parameterUnit":"m.s-1","parameterCategory":1,"la1":30.2992,"la2":30.254,"lo1":-89.0895,"lo2":-89.0443,"dy":0.0025,"dx":0.0025,"nx":19,"ny":19,"refTime":"2026-05-09T21:00:00:Z","depth":0,"parameterNumber":2,"parameterNumberName":"U-component_of_WINDS"},"data":[0,0,0,4.2299,4.2299,4.2296,4.2296,4.2352,4.2353,0,0,0,0,0,0,0,0,0,0,0,4.2338,4.2339,4.2299,4.23,4.2296,4.2296,4.2352,4.2353,0,0,0,0,0,0,0,0,0,0,0,4.2337,4.2339,4.2341,4.23,4.2296,4.2296,4.2351,4.2332,0,0,0,0,0,0,0,0,0,0,4.2325,4.2399,4.2338,4.2341,4.23,4.2296,4.2296,4.233,4.2333,4.2379,0,4.2431,0,4.2393,4.236,4.2361,0,0,0,4.2272,4.2397,4.2361,4.2341,4.23,4.2296,4.229,4.2331,4.2335,4.2384,4.2431,4.2432,4.2394,4.2361,4.2362,4.2719,4.2722,0,0,4.2272,4.2358,4.2359,4.2365,4.237,4.229,4.229,4.2333,4.239,4.2432,4.2432,4.2395,4.2362,4.2363,4.2717,4.272,0,0,0,4.2291,4.236,4.2321,4.2365,4.2359,4.2291,4.229,4.2388,4.2368,4.2432,4.2396,4.2363,4.2364,4.2713,4.2718,4.295,0,0,0,4.229,4.237,4.2323,4.2376,4.236,4.2374,4.2347,4.2366,4.2367,4.2395,4.2363,4.2365,4.271,4.2716,4.2936,4.3046,0,0,0,4.2325,4.2374,4.2386,4.238,4.2381,4.2371,4.2353,4.2364,4.2347,4.2361,4.2365,4.2707,4.2715,4.2924,4.3026,4.3165,0,0,0,4.2388,4.2595,4.2392,4.2607,4.2382,4.2514,4.2352,4.2446,4.2485,4.2363,4.271,4.2717,4.292,4.3013,4.3153,4.33,4.3368,0,0,4.2697,4.2635,4.2755,4.2573,4.2763,4.2508,4.273,4.2686,4.2608,4.2686,4.2694,4.294,4.3025,4.3163,4.3719,4.3775,0,0,0,4.2882,4.297,4.3001,4.3042,4.3011,4.2992,4.2903,4.2885,4.2947,4.2666,4.3024,4.3072,4.3149,4.3216,4.3263,4.3323,4.2751,4.275,4.275,4.3448,4.3334,4.3524,4.341,4.3451,4.3353,4.3376,4.3335,4.3212,4.3298,4.3322,4.3673,4.3754,4.3789,4.3854,4.3387,4.3388,4.3389,4.339,4.3892,4.3998,4.3822,4.3944,4.3822,4.3922,4.3835,4.3743,4.3818,4.3647,4.3709,4.3536,4.3853,4.3903,4.3406,4.3403,4.3401,4.34,4.3398,4.4252,4.4283,4.4255,4.4298,4.4343,4.4218,4.4297,4.4182,4.4075,4.4137,4.4149,4.4145,4.4128,4.415,4.4151,4.4152,4.4153,4.4154,4.4155,4.4639,4.4599,4.4679,4.4659,4.4667,4.4663,4.4562,4.4567,4.4543,4.4453,4.4453,4.4321,4.3904,4.3803,4.4174,4.417,4.4168,4.4166,4.4165,4.5136,4.5003,4.5129,4.5137,4.51,4.5152,4.5001,4.5019,4.5006,4.5048,4.4899,4.4609,4.4538,4.45,4.4416,4.4922,4.4922,4.4922,4.4923,4.5443,4.5393,4.5492,4.5512,4.5517,4.5392,4.5535,4.5456,4.5355,4.5339,4.5247,4.5124,4.509,4.504,4.499,4.491,4.553,4.5531,4.5531,4.5742,4.5687,4.5832,4.5729,4.5689,4.5658,4.5788,4.5816,4.5673,4.5554,4.5324,4.5298,4.5098,4.5039,4.4922,4.4847,4.4697,0,0]},{"header":{"parameterUnit":"m.s-1","parameterCategory":1,"la1":30.2992,"la2":30.254,"lo1":-89.0895,"lo2":-89.0443,"dy":0.0025,"dx":0.0025,"nx":19,"ny":19,"refTime":"2026-05-09T21:00:00:Z","depth":0,"parameterNumber":3,"parameterNumberName":"V-component_of_WINDS"},"data":[0,0,0,3.7519,3.752,3.7547,3.7547,3.7588,3.7589,0,0,0,0,0,0,0,0,0,0,0,3.7517,3.7517,3.7519,3.752,3.7547,3.7547,3.7588,3.7589,0,0,0,0,0,0,0,0,0,0,0,3.7516,3.7517,3.7518,3.752,3.7547,3.7547,3.7588,3.7565,0,0,0,0,0,0,0,0,0,0,3.7537,3.7541,3.7517,3.7518,3.752,3.7547,3.7547,3.7564,3.7566,3.7579,0,3.7594,0,3.7592,3.7592,3.7592,0,0,0,3.7515,3.7539,3.7541,3.7518,3.752,3.7547,3.7533,3.7565,3.7568,3.7583,3.7594,3.7596,3.7593,3.7592,3.7593,3.7684,3.7684,0,0,3.7514,3.7524,3.7539,3.7543,3.7541,3.7533,3.7534,3.7567,3.7579,3.7594,3.7596,3.7593,3.7593,3.7593,3.7683,3.7684,0,0,0,3.7512,3.7524,3.7525,3.7542,3.7546,3.7533,3.7535,3.7578,3.7577,3.7597,3.7594,3.7593,3.7594,3.7682,3.7683,3.7724,0,0,0,3.7511,3.7523,3.7524,3.7531,3.7546,3.7563,3.7546,3.7575,3.7579,3.7594,3.7593,3.7594,3.7682,3.7683,3.7721,3.7741,0,0,0,3.7513,3.7523,3.7529,3.7532,3.7544,3.7562,3.7563,3.7576,3.7577,3.7592,3.7594,3.7681,3.7683,3.7719,3.7737,3.7766,0,0,0,3.7517,3.7566,3.753,3.7582,3.7544,3.7588,3.7563,3.7595,3.7614,3.7593,3.7682,3.7683,3.7718,3.7735,3.7764,3.7792,3.7805,0,0,3.7584,3.7574,3.7604,3.7573,3.7626,3.7583,3.7641,3.7648,3.764,3.7669,3.7671,3.7722,3.7737,3.7766,3.7877,3.7888,0,0,0,3.7629,3.765,3.7662,3.768,3.7686,3.7692,3.7688,3.769,3.7714,3.7657,3.7741,3.775,3.7766,3.7779,3.7788,3.78,3.769,3.769,3.769,3.7739,3.7725,3.7773,3.7761,3.7779,3.7773,3.7785,3.7786,3.7769,3.7788,3.7797,3.7866,3.7881,3.7888,3.7901,3.7812,3.7812,3.7812,3.7812,3.7834,3.7861,3.7834,3.7871,3.7855,3.7885,3.7881,3.7866,3.7891,3.7859,3.7873,3.7839,3.79,3.791,3.7815,3.7814,3.7814,3.7814,3.7814,3.7903,3.7913,3.7915,3.7936,3.7955,3.7941,3.7965,3.7951,3.7937,3.7951,3.7956,3.7955,3.7951,3.7955,3.7955,3.7955,3.7955,3.7956,3.7956,3.7973,3.7973,3.7996,3.8004,3.8012,3.802,3.8014,3.8021,3.8024,3.8012,3.8012,3.799,3.7909,3.7888,3.7959,3.7959,3.7958,3.7958,3.7958,3.8072,3.8046,3.8081,3.8089,3.8096,3.8113,3.8094,3.8109,3.8112,3.8124,3.8099,3.8043,3.8031,3.8024,3.8006,3.8104,3.8104,3.8104,3.8104,3.8128,3.8121,3.8151,3.8164,3.8175,3.816,3.8197,3.8191,3.8182,3.8182,3.8167,3.8142,3.8136,3.8128,3.8119,3.8102,3.8221,3.8221,3.8221,3.8187,3.8179,3.8214,3.8204,3.8208,3.8211,3.8244,3.8259,3.8243,3.8226,3.8182,3.8177,3.8138,3.8127,3.8107,3.8093,3.8062,0,0]}]]